Natchez, MS

6:46 PM CDT on July 21, 2017 (GMT -0500)
Hardy-Anders-Adams County

Weather History for KHEZ - February, 2014

Change the Weather History Date:

Thursday, February 6, 2014

  Actual Average Record
Temperature  
Mean Temperature 32 °F -  
Max Temperature 35 °F 57 °F 79 °F (1938)
Min Temperature 28 °F 37 °F 23 °F (1978)
Degree Days  
Heating Degree Days 34    
Moisture  
Dew Point 23 °F    
Average Humidity 74    
Maximum Humidity 86    
Minimum Humidity 69    
Precipitation  
Precipitation 0.01 in - - ()
Sea Level Pressure  
Sea Level Pressure 30.39 in    
Wind  
Wind Speed 10 mph (NNE)    
Max Wind Speed 17 mph    
Max Gust Speed 22 mph    
Visibility 10 miles    
Events      
Averages and records for this station are not official NWS values.
T = Trace of Precipitation, MM = Missing Value Source: NWS Daily Summary

Daily Weather History Graph

Daily Weather History Graph

Search for Another Location

Airport or City:

Trip Planner

Search our weather history database for the weather conditions in past years. The results will help you decide how hot, cold, wet, or windy it might be!

Date:

Astronomy

Feb. 06, 2014 Rise Set
Actual Time 6:54 AM CST 5:44 PM CST
Civil Twilight 6:29 AM CST 6:09 PM CST
Nautical Twilight 6:00 AM CST 6:38 PM CST
Astronomical Twilight 5:31 AM CST 7:07 PM CST
Moon 11:17 AM CST (2/6) 12:10 AM CST (2/6)
Length of Visible Light 11h 40m
Length of Day
10h 49m
Waxing Crescent, 49% of the Moon is Illuminated
Feb 6
Waxing Crescent
Feb 6
First Quarter
Feb 14
Full
Feb 22
Last Quarter
Mar 1
New

Hourly Weather History & Observations

Time (CST) Temp. Windchill Dew Point Humidity Pressure Visibility Wind Dir Wind Speed Gust Speed Precip Events Conditions
12:15 AM 30.2 °F 20.2 °F 21.2 °F 69% 30.37 in 10.0 mi NNE 12.7 mph 18.4 mph N/A   Overcast
12:35 AM 30.2 °F 21.9 °F 21.2 °F 69% 30.37 in 10.0 mi NNE 9.2 mph - N/A   Overcast
12:55 AM 30.2 °F 21.3 °F 21.2 °F 69% 30.37 in 10.0 mi NNE 10.4 mph - N/A   Overcast
1:15 AM 30.2 °F 20.8 °F 21.2 °F 69% 30.36 in 10.0 mi NNE 11.5 mph 16.1 mph N/A   Overcast
1:35 AM 30.2 °F 24.3 °F 21.2 °F 69% 30.37 in 10.0 mi NNE 5.8 mph - N/A   Overcast
1:55 AM 30.2 °F 21.9 °F 23.0 °F 75% 30.37 in 10.0 mi NNE 9.2 mph - N/A   Overcast
2:15 AM 30.2 °F 21.9 °F 21.2 °F 69% 30.37 in 10.0 mi NNE 9.2 mph - N/A   Overcast
2:35 AM 30.2 °F 21.9 °F 21.2 °F 69% 30.37 in 10.0 mi NNE 9.2 mph - N/A   Overcast
2:55 AM 30.2 °F 21.9 °F 21.2 °F 69% 30.37 in 10.0 mi NNE 9.2 mph - N/A   Overcast
3:15 AM 30.2 °F 21.9 °F 21.2 °F 69% 30.37 in 10.0 mi NNE 9.2 mph - N/A   Overcast
3:35 AM 30.2 °F 21.9 °F 21.2 °F 69% 30.36 in 10.0 mi NNE 9.2 mph - N/A   Overcast
3:55 AM 30.2 °F 22.6 °F 21.2 °F 69% 30.36 in 10.0 mi NNE 8.1 mph - N/A   Overcast
4:15 AM 30.2 °F 21.3 °F 21.2 °F 69% 30.36 in 10.0 mi North 10.4 mph - N/A   Overcast
4:35 AM 30.2 °F 20.2 °F 21.2 °F 69% 30.36 in 10.0 mi NNE 12.7 mph - N/A   Overcast
4:55 AM 30.2 °F 19.3 °F 21.2 °F 69% 30.36 in 10.0 mi North 15.0 mph 18.4 mph N/A   Overcast
5:15 AM 28.4 °F 18.0 °F 23.0 °F 80% 30.37 in 10.0 mi NNE 12.7 mph 19.6 mph N/A   Overcast
5:35 AM 30.2 °F 23.4 °F 21.2 °F 69% 30.37 in 10.0 mi NNE 6.9 mph - N/A   Overcast
5:55 AM 30.2 °F 19.8 °F 21.2 °F 69% 30.37 in 10.0 mi NNE 13.8 mph - N/A   Overcast
6:15 AM 30.2 °F 20.2 °F 21.2 °F 69% 30.37 in 10.0 mi NNE 12.7 mph - N/A   Overcast
6:35 AM 30.2 °F 19.3 °F 21.2 °F 69% 30.38 in 10.0 mi NNE 15.0 mph - N/A   Overcast
6:55 AM 30.2 °F 20.8 °F 21.2 °F 69% 30.40 in 10.0 mi North 11.5 mph - N/A   Overcast
7:15 AM 30.2 °F 20.2 °F 21.2 °F 69% 30.41 in 10.0 mi North 12.7 mph - N/A   Overcast
7:35 AM 30.2 °F 19.3 °F 21.2 °F 69% 30.42 in 10.0 mi NNE 15.0 mph 21.9 mph N/A   Overcast
7:55 AM 30.2 °F 22.6 °F 23.0 °F 75% 30.42 in 10.0 mi North 8.1 mph 18.4 mph N/A   Overcast
8:15 AM 30.2 °F 20.8 °F 21.2 °F 69% 30.41 in 10.0 mi NNE 11.5 mph - N/A   Overcast
8:35 AM 30.2 °F 19.3 °F 23.0 °F 75% 30.39 in 10.0 mi NNE 15.0 mph 18.4 mph N/A   Overcast
8:55 AM 30.2 °F 20.8 °F 21.2 °F 69% 30.39 in 10.0 mi NNE 11.5 mph 16.1 mph N/A   Overcast
9:15 AM 30.2 °F 18.5 °F 23.0 °F 75% 30.38 in 10.0 mi NE 17.3 mph 20.7 mph N/A   Overcast
9:35 AM 30.2 °F 20.8 °F 23.0 °F 75% 30.41 in 10.0 mi NNE 11.5 mph 16.1 mph N/A   Overcast
9:55 AM 32.0 °F 24.8 °F 23.0 °F 69% 30.49 in 10.0 mi NNW 8.1 mph - N/A   Overcast
10:15 AM 32.0 °F 24.2 °F 23.0 °F 69% 30.48 in 10.0 mi North 9.2 mph - N/A   Overcast
10:35 AM 30.2 °F 21.3 °F 23.0 °F 75% 30.49 in 10.0 mi NNW 10.4 mph - N/A   Overcast
10:55 AM 30.2 °F 20.8 °F 23.0 °F 75% 30.48 in 10.0 mi North 11.5 mph - N/A   Overcast
11:15 AM 30.2 °F 21.3 °F 24.8 °F 80% 30.47 in 10.0 mi North 10.4 mph - N/A   Overcast
11:35 AM 30.2 °F 21.3 °F 24.8 °F 80% 30.46 in 9.0 mi North 10.4 mph - N/A   Overcast
11:55 AM 30.2 °F 21.3 °F 24.8 °F 80% 30.44 in 10.0 mi NNE 10.4 mph 17.3 mph N/A   Overcast
12:15 PM 32.0 °F 24.2 °F 24.8 °F 75% 30.44 in 10.0 mi NNE 9.2 mph - N/A   Overcast
12:35 PM 32.0 °F 23.0 °F 24.8 °F 75% 30.40 in 10.0 mi NNE 11.5 mph - N/A   Overcast
12:55 PM 32.0 °F 23.0 °F 24.8 °F 75% 30.40 in 10.0 mi NNE 11.5 mph 16.1 mph N/A   Overcast
1:15 PM 32.0 °F 23.6 °F 26.6 °F 80% 30.38 in 10.0 mi North 10.4 mph - N/A   Overcast
1:35 PM 33.8 °F 26.4 °F 26.6 °F 75% 30.37 in 10.0 mi NNE 9.2 mph - N/A   Overcast
1:55 PM 33.8 °F 25.8 °F 26.6 °F 75% 30.35 in 10.0 mi NNE 10.4 mph 17.3 mph N/A   Overcast
2:15 PM 35.6 °F 28.6 °F 26.6 °F 70% 30.35 in 10.0 mi NNE 9.2 mph 17.3 mph N/A   Overcast
2:35 PM 35.6 °F 26.6 °F 26.6 °F 70% 30.35 in 10.0 mi North 13.8 mph - N/A   Overcast
2:55 PM 35.6 °F 26.6 °F 26.6 °F 70% 30.35 in 10.0 mi North 13.8 mph 17.3 mph N/A   Overcast
3:15 PM 33.8 °F 23.9 °F 24.8 °F 70% 30.37 in 10.0 mi North 15.0 mph 19.6 mph 0.01 in   Overcast
3:35 PM 33.8 °F 25.3 °F 24.8 °F 70% 30.38 in 10.0 mi North 11.5 mph - 0.01 in   Overcast
3:55 PM 33.8 °F 24.3 °F 26.6 °F 75% 30.38 in 10.0 mi NNE 13.8 mph - 0.01 in   Overcast
4:15 PM 33.8 °F 25.3 °F 24.8 °F 70% 30.37 in 10.0 mi NNE 11.5 mph - N/A   Overcast
4:35 PM 33.8 °F 24.3 °F 26.6 °F 75% 30.37 in 10.0 mi North 13.8 mph 17.3 mph N/A   Overcast
4:55 PM 33.8 °F 27.0 °F 24.8 °F 70% 30.37 in 10.0 mi North 8.1 mph - N/A   Mostly Cloudy
5:15 PM 32.0 °F 24.2 °F 24.8 °F 75% 30.37 in 10.0 mi North 9.2 mph - N/A   Scattered Clouds
5:35 PM 32.0 °F 23.6 °F 24.8 °F 75% 30.37 in 10.0 mi North 10.4 mph - N/A   Partly Cloudy
5:55 PM 30.2 °F 22.6 °F 24.8 °F 80% 30.37 in 10.0 mi NNW 8.1 mph - N/A   Clear
6:15 PM 30.2 °F 23.4 °F 23.0 °F 75% 30.37 in 10.0 mi North 6.9 mph - N/A   Clear
6:35 PM 30.2 °F 23.4 °F 24.8 °F 80% 30.37 in 10.0 mi North 6.9 mph - N/A   Clear
6:55 PM 28.4 °F 21.2 °F 24.8 °F 86% 30.37 in 10.0 mi North 6.9 mph - N/A   Clear
7:15 PM 28.4 °F 22.2 °F 23.0 °F 80% 30.37 in 10.0 mi North 5.8 mph - N/A   Clear
7:35 PM 28.4 °F 22.2 °F 24.8 °F 86% 30.37 in 10.0 mi North 5.8 mph - N/A   Clear
7:55 PM 28.4 °F 22.2 °F 23.0 °F 80% 30.38 in 10.0 mi North 5.8 mph - N/A   Clear
8:15 PM 28.4 °F 22.2 °F 23.0 °F 80% 30.38 in 10.0 mi North 5.8 mph - N/A   Partly Cloudy
8:35 PM 28.4 °F 19.7 °F 23.0 °F 80% 30.38 in 10.0 mi North 9.2 mph - N/A   Partly Cloudy
8:55 PM 28.4 °F 21.2 °F 23.0 °F 80% 30.38 in 10.0 mi North 6.9 mph - N/A   Clear
9:15 PM 28.4 °F 21.2 °F 23.0 °F 80% 30.39 in 10.0 mi North 6.9 mph - N/A   Mostly Cloudy
9:35 PM 28.4 °F 19.7 °F 23.0 °F 80% 30.40 in 10.0 mi North 9.2 mph - N/A   Overcast
9:55 PM 28.4 °F 19.7 °F 23.0 °F 80% 30.39 in 10.0 mi North 9.2 mph - N/A   Overcast
10:15 PM 28.4 °F 19.7 °F 21.2 °F 74% 30.38 in 10.0 mi NNE 9.2 mph - N/A   Overcast
10:35 PM 28.4 °F 20.4 °F 23.0 °F 80% 30.39 in 10.0 mi North 8.1 mph - N/A   Overcast
10:55 PM 28.4 °F 22.2 °F 23.0 °F 80% 30.39 in 10.0 mi North 5.8 mph - N/A   Overcast
11:15 PM 28.4 °F 21.2 °F 23.0 °F 80% 30.39 in 10.0 mi North 6.9 mph - N/A   Overcast
11:35 PM 28.4 °F 19.1 °F 23.0 °F 80% 30.38 in 10.0 mi NNE 10.4 mph - N/A   Overcast
11:55 PM 28.4 °F 21.2 °F 21.2 °F 74% 30.38 in 10.0 mi NNE 6.9 mph - N/A   Mostly Cloudy